[[{"header":{"parameterUnit":"m.s-1","parameterCategory":1,"la1":30.2992,"la2":30.254,"lo1":-89.0895,"lo2":-89.0443,"dy":0.0025,"dx":0.0025,"nx":19,"ny":19,"refTime":"2026-03-14T09:00:00:Z","depth":0,"parameterNumber":2,"parameterNumberName":"U-component_of_WINDS"},"data":[0,0,0,-0.8175,-0.8176,-0.8192,-0.8192,-0.822,-0.822,0,0,0,0,0,0,0,0,0,0,0,-0.8173,-0.8174,-0.8175,-0.8176,-0.8192,-0.8192,-0.822,-0.822,0,0,0,0,0,0,0,0,0,0,0,-0.8173,-0.8173,-0.8174,-0.8176,-0.8192,-0.8192,-0.822,-0.8205,0,0,0,0,0,0,0,0,0,0,-0.8188,-0.8189,-0.8173,-0.8174,-0.8176,-0.8192,-0.8192,-0.8205,-0.8206,-0.8215,0,-0.8223,0,-0.8222,-0.8223,-0.8223,0,0,0,-0.8174,-0.8188,-0.8189,-0.8174,-0.8176,-0.8192,-0.8184,-0.8205,-0.8207,-0.8217,-0.8223,-0.8224,-0.8223,-0.8223,-0.8223,-0.8278,-0.8279,0,0,-0.8173,-0.8178,-0.8188,-0.8191,-0.8187,-0.8184,-0.8185,-0.8207,-0.8214,-0.8223,-0.8225,-0.8223,-0.8223,-0.8223,-0.8278,-0.8279,0,0,0,-0.8171,-0.8178,-0.8178,-0.819,-0.8192,-0.8184,-0.8185,-0.8213,-0.8212,-0.8225,-0.8223,-0.8223,-0.8224,-0.8278,-0.8278,-0.8301,0,0,0,-0.8171,-0.8177,-0.8178,-0.8182,-0.8192,-0.8202,-0.8191,-0.8211,-0.8213,-0.8223,-0.8223,-0.8224,-0.8277,-0.8278,-0.8299,-0.831,0,0,0,-0.8171,-0.8177,-0.818,-0.8182,-0.8189,-0.8202,-0.8203,-0.8211,-0.8212,-0.8223,-0.8224,-0.8277,-0.8278,-0.8298,-0.8308,-0.8327,0,0,0,-0.8173,-0.82,-0.818,-0.821,-0.8189,-0.8215,-0.8203,-0.8222,-0.8234,-0.8223,-0.8277,-0.8278,-0.8297,-0.8307,-0.8325,-0.8344,-0.8351,0,0,-0.821,-0.8204,-0.8221,-0.8204,-0.8235,-0.8212,-0.8247,-0.8253,-0.8249,-0.8269,-0.827,-0.83,-0.8308,-0.8326,-0.8393,-0.8399,0,0,0,-0.8235,-0.8247,-0.8254,-0.8264,-0.8269,-0.8275,-0.8274,-0.8277,-0.8293,-0.826,-0.8311,-0.8316,-0.8326,-0.8335,-0.834,-0.8349,-0.8282,-0.8282,-0.8282,-0.8294,-0.8288,-0.8315,-0.8311,-0.8322,-0.8321,-0.833,-0.8333,-0.8324,-0.8336,-0.8342,-0.8383,-0.8393,-0.8397,-0.8407,-0.8351,-0.8351,-0.8351,-0.8351,-0.8348,-0.8364,-0.8351,-0.8372,-0.8366,-0.8385,-0.8386,-0.8379,-0.8396,-0.8378,-0.8387,-0.8369,-0.8404,-0.8412,-0.8353,-0.8352,-0.8352,-0.8352,-0.8352,-0.8386,-0.8393,-0.8395,-0.841,-0.8423,-0.8418,-0.8435,-0.8428,-0.8422,-0.8431,-0.8437,-0.8437,-0.8436,-0.8435,-0.8435,-0.8435,-0.8435,-0.8435,-0.8435,-0.8426,-0.8427,-0.8442,-0.8449,-0.8455,-0.8463,-0.8463,-0.8469,-0.8475,-0.8469,-0.8469,-0.8459,-0.8409,-0.8396,-0.8437,-0.8437,-0.8437,-0.8436,-0.8436,-0.8484,-0.8469,-0.8492,-0.8498,-0.8506,-0.852,-0.8511,-0.8525,-0.8529,-0.8538,-0.8526,-0.8489,-0.8484,-0.8479,-0.8469,-0.8527,-0.8527,-0.8527,-0.8527,-0.8517,-0.8513,-0.8535,-0.8545,-0.8555,-0.8549,-0.8576,-0.8577,-0.8575,-0.8578,-0.8569,-0.8554,-0.855,-0.8547,-0.8541,-0.8532,-0.8604,-0.8604,-0.8604,-0.8552,-0.8549,-0.8572,-0.857,-0.8576,-0.8581,-0.8607,-0.862,-0.8616,-0.8607,-0.858,-0.8577,-0.8554,-0.8546,-0.8537,-0.8528,-0.8511,0,0]},{"header":{"parameterUnit":"m.s-1","parameterCategory":1,"la1":30.2992,"la2":30.254,"lo1":-89.0895,"lo2":-89.0443,"dy":0.0025,"dx":0.0025,"nx":19,"ny":19,"refTime":"2026-03-14T09:00:00:Z","depth":0,"parameterNumber":3,"parameterNumberName":"V-component_of_WINDS"},"data":[0,0,0,1.5244,1.5244,1.526,1.526,1.5279,1.5279,0,0,0,0,0,0,0,0,0,0,0,1.5241,1.5241,1.5244,1.5245,1.526,1.526,1.5279,1.5279,0,0,0,0,0,0,0,0,0,0,0,1.5241,1.5241,1.5241,1.5245,1.526,1.526,1.5279,1.5267,0,0,0,0,0,0,0,0,0,0,1.5253,1.5251,1.5241,1.5241,1.5245,1.526,1.526,1.5267,1.5268,1.5273,0,1.5278,0,1.5279,1.5281,1.5281,0,0,0,1.5244,1.525,1.5253,1.5241,1.5245,1.526,1.5253,1.5268,1.5269,1.5274,1.5278,1.5279,1.5279,1.5281,1.5281,1.531,1.531,0,0,1.5243,1.5244,1.5252,1.5254,1.5252,1.5252,1.5253,1.5268,1.5272,1.5278,1.5279,1.5279,1.5281,1.5281,1.531,1.531,0,0,0,1.5241,1.5243,1.5246,1.5253,1.5256,1.5253,1.5254,1.5271,1.5272,1.5279,1.528,1.5281,1.5281,1.531,1.531,1.5319,0,0,0,1.524,1.5242,1.5246,1.5247,1.5255,1.5264,1.5256,1.5271,1.5273,1.528,1.5281,1.5282,1.531,1.531,1.5319,1.5324,0,0,0,1.5239,1.5242,1.5245,1.5247,1.5253,1.5264,1.5265,1.5272,1.5273,1.5281,1.5282,1.531,1.531,1.5318,1.5323,1.5331,0,0,0,1.5238,1.5253,1.5245,1.5262,1.5253,1.527,1.5265,1.5278,1.5285,1.5281,1.531,1.531,1.5318,1.5322,1.533,1.5337,1.5341,0,0,1.5258,1.5256,1.5266,1.5258,1.5277,1.5267,1.5287,1.5293,1.5293,1.5304,1.5305,1.5319,1.5323,1.5331,1.536,1.5363,0,0,0,1.5272,1.5279,1.5284,1.5291,1.5296,1.53,1.5303,1.5305,1.5314,1.5299,1.5325,1.5327,1.5331,1.5335,1.5337,1.534,1.5312,1.5312,1.5312,1.5301,1.53,1.5315,1.5315,1.5322,1.5324,1.5329,1.5332,1.5329,1.5335,1.5338,1.5356,1.536,1.5362,1.5366,1.5342,1.5342,1.5342,1.5343,1.5329,1.5338,1.5332,1.5345,1.5343,1.5354,1.5356,1.5353,1.5362,1.5354,1.5358,1.5349,1.5365,1.5368,1.5343,1.5343,1.5343,1.5343,1.5343,1.5347,1.5351,1.5353,1.5362,1.5369,1.5368,1.5377,1.5375,1.5373,1.5377,1.5379,1.5379,1.5378,1.5378,1.5378,1.5378,1.5378,1.5378,1.5378,1.5365,1.5367,1.5375,1.538,1.5383,1.5388,1.5389,1.5392,1.5395,1.5393,1.5393,1.5388,1.5367,1.5361,1.5379,1.5379,1.5379,1.5379,1.5379,1.5393,1.5386,1.5397,1.5401,1.5406,1.5412,1.5409,1.5415,1.5418,1.5422,1.5416,1.5401,1.5399,1.5397,1.5392,1.5417,1.5417,1.5417,1.5417,1.5408,1.5406,1.5416,1.5422,1.5427,1.5425,1.5436,1.5437,1.5436,1.5437,1.5434,1.5427,1.5426,1.5424,1.5422,1.5417,1.5448,1.5448,1.5448,1.5424,1.5422,1.5433,1.5433,1.5436,1.5438,1.5449,1.5454,1.5453,1.5449,1.5438,1.5437,1.5426,1.5423,1.5419,1.5416,1.5407,0,0]}]]